Regional Weather Roundup
Issued by NWS Columbia, SC

Home | Current Version | Previous Version | Text Only | Print | Product List | Glossary On
Versions: 1 2 3 4 5 6 7 8 9 10 11 12 13 14 15 16 17 18 19 20 21 22 23 24 25 26 27 28 29 30 31 32 33 34 35 36 37 38 39 40 41 42 43 44 45 46 47 48 49 50
000
ASUS42 KCAE 281010
RWRCAE
REGIONAL WEATHER ROUNDUP
NATIONAL WEATHER SERVICE COLUMBIA SC
600 AM EDT THU MAY 28 2015

NOTE: "FAIR" INDICATES FEW OR NO CLOUDS BELOW 12,000 FEET WITH NO
SIGNIFICANT WEATHER AND/OR OBSTRUCTIONS TO VISIBILITY.

NOT ALL STATIONS ARE QUALITY CONTROLLED BY THE NATIONAL
WEATHER SERVICE. USE DATA WITH CAUTION...ESPECIALLY
DEWPOINT OBSERVATIONS.

SCZ001>056-GAZ040-063>065-077-281100-
...UPSTATE SOUTH CAROLINA...

CITY           SKY/WX    TMP DP  RH WIND       PRES   REMARKS
ANDERSON       PTCLDY    65  64  97 NE7       30.18S
LIBERTY        MOSUNNY  N/A N/A N/A CALM      30.19F FOG
SPARTANBURG    PTCLDY   N/A N/A N/A CALM      30.20S
CLEMSON        FOG       69  65  86 NE3       30.20S VSB 3/4
GREENVILLE     PTCLDY    66  62  87 CALM      30.21S
GREENWOOD      PTCLDY    66  64  93 CALM      30.20S
GREER          PTCLDY    64  63  96 CALM      30.19S
ROCK HILL      PTCLDY    66  65  96 CALM      30.21R FOG
CHESTER        MOSUNNY   68  66  94 CALM      30.21R
LAURENS        PTSUNNY   68  68 100 CALM      30.19S


...CENTRAL SOUTH CAROLINA...

CITY           SKY/WX    TMP DP  RH WIND       PRES   REMARKS
COLUMBIA APT   PTCLDY    67  64  90 CALM      30.19R
COLUMBIA OWENS PTCLDY    68  65  90 CALM      30.20S
DARLINGTON     CLEAR     64  63  94 CALM      30.21S
FLORENCE       CLEAR     68  66  93 CALM      30.20R
MCENTIRE ANGB  PTCLDY    64  64 100 CALM      30.20R FOG
ORANGEBURG     CLEAR     64  62  93 CALM      30.19S
SUMTER SHAW    PTCLDY    67  66  96 CALM      30.18S FOG
NEWBERRY       PTSUNNY   68  68 100 S3        30.22S
AIKEN          PTSUNNY   68  63  83 CALM      30.23S
BARNWELL       FAIR      64  64 100 CALM      30.20R
MANNING        FAIR      63  61  94 CALM      30.20R
CAMDEN         FAIR      66  66 100 CALM      30.20S
LANCASTER      LGT RAIN  66  66 100 CALM      30.20S
WINNSBORO      MOSUNNY   66  66 100 CALM      30.20S


...EASTERN AND COASTAL SOUTH CAROLINA...

CITY           SKY/WX    TMP DP  RH WIND       PRES   REMARKS
MYRTLE BEACH   PTCLDY    72  63  73 SE6       30.22S
N MYRTLE BCH   PTCLDY    73  63  70 SE5       30.20R
CONWAY         FAIR      63  63 100 CALM      30.21R FOG
MARION         FAIR      66  66 100 CALM      30.21R FOG
HARTSVILLE     FAIR      63  63 100 CALM      30.20R
FLORENCE       CLEAR     68  66  93 CALM      30.20R
DARLINGTON     CLEAR     64  63  94 CALM      30.21S
CHARLESTON APT PTCLDY    68  66  93 CALM      30.19R
MOUNT PLEASANT LGT RAIN  66  66 100 CALM      30.19S
WALTERBORO     SUNNY     63  61  94 CALM      30.20R
BEAUFORT       PTCLDY    68  67  96 CALM      30.18R


...EASTERN GEORGIA...

CITY           SKY/WX    TMP DP  RH WIND       PRES   REMARKS
AUGUSTA BUSH F CLOUDY    68  66  93 CALM      30.18R
AUGUSTA DANIEL CLOUDY    73  66  78 CALM      30.20R
THOMSON        PTCLDY    70  70 100 CALM      30.23R
WASHINGTON     FAIR      70  70 100 CALM      30.18S
CLAXTON        FAIR      61  61 100 CALM      30.18R
SYLVANIA       SUNNY     64  64 100 CALM      30.19S
STATESBORO     CLEAR     63  32  31 CALM      30.19R
SAVANNAH       PTCLDY    65  64  97 CALM      30.18R


...SOUTHERN NORTH CAROLINA...

CITY           SKY/WX    TMP DP  RH WIND       PRES   REMARKS
CHARLOTTE      MOCLDY    68  65  90 CALM      30.20S
MONROE         CLEAR     66  65  96 CALM      30.19S FOG
WADESBORO      MOSUNNY   64  63  94 CALM      30.20R
ROCKINGHAM     PTSUNNY   67  67  98 CALM      30.20R FOG
RUTHERFORDTON  CLEAR     61  61 100 CALM      30.22R
ASHEVILLE      CLOUDY    64  61  90 CALM      30.26R

$$



USA.gov is the U.S. government's official web portal to all federal, state and local government web resources and services.